Regional Weather Roundup
Issued by NWS Little Rock, AR

Home | Current Version | Previous Version | Graphics & Text | Print | Product List | Glossary On
Versions: 1 2 3 4 5 6 7 8 9 10 11 12 13 14 15 16 17 18 19 20 21 22 23 24 25 26 27 28 29 30 31 32
000
ASUS44 KLZK 271805
RWRLZK

WEATHER ROUNDUP FOR ARKANSAS
NATIONAL WEATHER SERVICE LITTLE ROCK AR
100 PM CDT TUE SEP 27 2016

NOTE: "FAIR" INDICATES FEW OR NO CLOUDS BELOW 12,000 FEET WITH NO
SIGNIFICANT WEATHER AND/OR OBSTRUCTIONS TO VISIBILITY.

ARZ001-003-010-029-271900-
NORTHWEST ARKANSAS

CITY           SKY/WX    TMP DP  RH WIND       PRES   REMARKS
FAYETTEVILLE   SUNNY     74  46  36 CALM      30.09F
6HR MIN TEMP:  43; 6HR MAX TEMP:  74;

FORT SMITH     SUNNY     77  41  27 W8        30.07F
6HR MIN TEMP:  50; 6HR MAX TEMP:  78;

HARRISON       SUNNY     74  45  35 W7        30.09F
6HR MIN TEMP:  46; 6HR MAX TEMP:  74;

BENTONVILLE    SUNNY     73  43  33 W6        30.09F
6HR MIN TEMP:  46; 6HR MAX TEMP:  73;

ROGERS         SUNNY     72  47  40 NW5       30.10F
6HR MIN TEMP:  48; 6HR MAX TEMP:  72;

SILOAM SPGS    SUNNY     75  43  31 N6        30.09F
6HR MIN TEMP:  45; 6HR MAX TEMP:  75;

HIGHFILL       SUNNY     76  45  33 NW5       30.08F
6HR MIN TEMP:  45; 6HR MAX TEMP:  77;

SPRINGDALE     SUNNY     73  45  35 SW3       30.11F
$$

ARZ004-005-016-271900-
NORTH CENTRAL ARKANSAS

CITY           SKY/WX    TMP DP  RH WIND       PRES   REMARKS
BATESVILLE     SUNNY     75  48  38 W6        30.05F
6HR MIN TEMP:  50; 6HR MAX TEMP:  75;

FLIPPIN        SUNNY     75  43  31 N3        30.04F
6HR MIN TEMP:  46; 6HR MAX TEMP:  75;

MTN HOME       SUNNY     73  46  38 VRB6      30.06F
6HR MIN TEMP:  51; 6HR MAX TEMP:  74;

$$

ARZ040-041-271900-
WEST CENTRAL ARKANSAS

CITY           SKY/WX    TMP DP  RH WIND       PRES   REMARKS
MENA           SUNNY     75  50  41 CALM      30.09F
MOUNT IDA      SUNNY     76  48  37 NW6       30.06F
6HR MIN TEMP:  53; 6HR MAX TEMP:  76;

$$

ARZ009-017-025-026-028-271900-
NORTHEAST ARKANSAS

CITY           SKY/WX    TMP DP  RH WIND       PRES   REMARKS
CORNING          N/A     75  50  41 SW3       30.03F
JONESBORO      SUNNY     76  41  28 VRB3      30.03F
6HR MIN TEMP:  48; 6HR MAX TEMP:  77;

NEWPORT        SUNNY     76  44  32 W3        30.04F
6HR MIN TEMP:  49; 6HR MAX TEMP:  76;

WALNUT RIDGE   SUNNY     75  45  33 W6        30.03F
6HR MIN TEMP:  50; 6HR MAX TEMP:  75;

BLYTHEVILLE    SUNNY     79  44  28 NW5       30.03F
6HR MIN TEMP:  50; 6HR MAX TEMP:  80;

$$

ARZ022-023-033-042-044-271900-
CENTRAL ARKANSAS

CITY           SKY/WX    TMP DP  RH WIND       PRES   REMARKS
LITTLE ROCK    MOSUNNY   79  43  27 N10       30.06F
6HR MIN TEMP:  58; 6HR MAX TEMP:  79;

N LITTLE ROCK    N/A     73  49  41 N6        30.04F
6HR MIN TEMP:  56; 6HR MAX TEMP:  73;

JACKSONVILLE   SUNNY     76  45  32 N5        30.05F
6HR MIN TEMP:  51; 6HR MAX TEMP:  76;

SEARCY         SUNNY     77  45  32 NE7       30.06F
6HR MIN TEMP:  50; 6HR MAX TEMP:  78;

HOT SPRINGS    SUNNY     76  48  37 VRB5      30.06F
6HR MIN TEMP:  55; 6HR MAX TEMP:  77;

RUSSELLVILLE   SUNNY     76  47  35 VRB5      30.06F
6HR MIN TEMP:  50; 6HR MAX TEMP:  76;

$$

ARZ036-271900-
EAST ARKANSAS

CITY           SKY/WX    TMP DP  RH WIND       PRES   REMARKS
WEST MEMPHIS   SUNNY     76  39  26 NE8       30.02F
6HR MIN TEMP:  53; 6HR MAX TEMP:  77;

$$

ARZ050-053-066-070-073-271900-
SOUTHWEST ARKANSAS

CITY           SKY/WX    TMP DP  RH WIND       PRES   REMARKS
ARKADELPHIA    FAIR      77  52  41 VRB5      30.07F
6HR MIN TEMP:  55; 6HR MAX TEMP:  77;

TEXARKANA      MOSUNNY   79  48  33 N8G16     30.07F
6HR MIN TEMP:  66; 6HR MAX TEMP:  79;

EL DORADO      SUNNY     76  54  46 VRB5      30.06F
6HR MIN TEMP:  61; 6HR MAX TEMP:  77;

DE QUEEN       SUNNY     78  52  40 CALM      30.04F
6HR MIN TEMP:  54; 6HR MAX TEMP:  78;

$$

ARZ056-057-069-271900-
SOUTHEAST ARKANSAS

CITY           SKY/WX    TMP DP  RH WIND       PRES   REMARKS
PINE BLUFF     SUNNY     76  47  35 N7        30.05F
6HR MIN TEMP:  57; 6HR MAX TEMP:  77;

STUTTGART      SUNNY     77  46  33 N12       30.05F
6HR MIN TEMP:  54; 6HR MAX TEMP:  77;

MONTICELLO     SUNNY     78  53  41 VRB3      30.04F
6HR MIN TEMP:  61; 6HR MAX TEMP:  78;


$$






USA.gov is the U.S. government's official web portal to all federal, state and local government web resources and services.